#timestamp,LO_Frequency,Hit,StdDev 
1627812015.3,286047001.2,N
1627812035.1,286047001.0,N
1627812055.9,286046998.2,N
1627812075.7,286047001.0,N
1627812095.5,286046998.6,N
1627812115.4,286047000.7,N
1627812135.2,286046998.5,N
1627812155.0,286047001.0,N
1627812155.9,286047001.0,N
1627812175.8,286047000.7,N
1627812195.6,286046998.5,N
1627812215.5,286046998.3,N
1627812235.3,286046998.9,N
1627812255.1,286046998.4,N
1627812275.9,286046998.4,N
1627812295.7,286046998.8,N
1627812315.6,286046998.5,N
1627812335.4,286047000.7,N
1627812355.2,286046998.5,N
1627812375.1,286047001.2,N
1627812376.0,286047001.2,N
1627812395.8,286047000.9,N
1627812415.6,286046998.5,N
1627812435.5,286046998.6,N
1627812455.3,286046998.6,N
1627812475.2,286046998.8,N
1627812495.9,286046998.9,N
1627812515.7,286046998.6,N
1627812535.6,286046998.2,N
1627812555.4,286047000.8,N
1627812575.3,286046998.6,N
1627812595.1,286046998.2,N
1627812596.0,286046998.2,N
1627812615.8,286046998.1,N
1627812635.7,286046998.3,N
1627812655.5,286046998.4,N
1627812675.3,286046998.5,N
1627812695.2,286046999.0,N
1627812715.0,286046998.5,N
1627812715.9,286046998.5,N
1627812735.8,286046998.6,N
1627812755.6,286047001.1,N
1627812775.4,286046998.9,N
1627812795.3,286046999.0,N
1627812815.1,286046998.7,N
1627812835.9,286046998.7,N
1627812855.7,286046998.1,N
1627812875.5,286046998.4,N
1627812895.4,286046999.3,N
1627812915.2,286046999.0,N
1627812935.0,286046998.3,N
1627812936.0,286046998.3,N
1627812955.8,286046998.2,N
1627812975.6,286046998.2,N
1627812995.5,286046998.2,N
1627813015.3,286046998.6,N
1627813035.1,286046998.2,N
1627813055.9,286046998.3,N
1627813075.7,286046998.2,N
1627813095.6,286047001.2,N
1627813115.4,286046998.5,N
1627813135.2,286047001.2,N
1627813155.1,286046998.3,N
1627813156.0,286046998.3,N
1627813175.8,286046999.0,N
1627813195.7,286047001.2,N
1627813215.5,286046998.7,N
1627813235.3,286046999.0,N
1627813255.2,286046998.4,N
1627813275.9,286046998.7,N
1627813295.7,286046998.6,N
1627813315.6,286046998.5,N
1627813335.4,286046998.5,N
1627813355.3,286046998.4,N
1627813375.1,286046999.0,N
1627813376.0,286046999.0,N
1627813395.8,286046998.3,N
1627813415.7,286046998.6,N
1627813435.5,286046998.5,N
1627813455.3,286046998.7,N
1627813475.2,286046998.5,N
1627813495.0,286046998.3,N
1627813495.9,286046998.3,N
1627813515.8,286046998.3,N
1627813535.6,286046998.7,N
1627813555.4,286046998.7,N
1627813575.3,286046998.7,N
1627813595.1,286046998.7,N
1627813615.9,286046999.4,N
1627813635.7,286046998.1,N
1627813655.5,286046998.9,N
1627813675.4,286046998.6,N
1627813695.2,286046998.8,N
1627813715.1,286046998.8,N
1627813716.0,286046998.8,N
1627813735.8,286046998.9,N
1627813755.6,286046998.8,Y
1627813775.5,286047000.7,P
1627813795.3,286046999.7,N
1627813815.2,286046999.7,N
1627813835.9,286046999.7,N
1627813855.7,286046999.7,N
1627813875.6,286047002.5,Y
1627813895.4,286046999.8,P
1627813915.2,286047002.7,P
1627813935.1,286047000.1,N
1627813936.0,286047000.1,N
1627813955.8,286046999.9,N
1627813975.7,286047000.1,N
1627813995.5,286047000.0,N
1627814015.3,286047000.3,N
1627814035.2,286046999.8,N
1627814055.0,286046999.8,N
1627814055.9,286046999.8,N
1627814075.8,286046999.7,N
1627814095.6,286047002.8,Y
1627814115.4,286047002.8,P
1627814135.3,286047000.2,N
1627814155.1,286047002.3,N
1627814175.9,286046999.7,N
1627814195.7,286046999.7,N
1627814215.5,286047002.8,N
1627814235.4,286047002.7,N
1627814255.2,286047002.8,N
1627814275.0,286047002.7,N
1627814276.0,286047002.7,N
1627814295.8,286046999.7,N
1627814315.6,286046999.7,N
1627814335.5,286047002.7,N
1627814355.3,286047002.8,N
1627814375.1,286047002.4,N
1627814395.9,286047002.8,N
1627814415.7,286047002.7,N
1627814435.6,286047002.7,N
1627814455.4,286047000.2,N
1627814475.2,286047002.6,N
1627814495.1,286047002.3,N
1627814496.0,286047002.3,N
1627814515.8,286047000.2,N
1627814535.7,286047002.3,N
1627814555.5,286047000.2,N
1627814575.3,286047002.3,N
1627814595.2,286047000.0,N
1627814615.0,286047002.7,N
1627814615.9,286047002.7,N
1627814635.8,286047002.7,N
1627814655.6,286047002.4,N
1627814675.4,286047002.8,N
1627814695.3,286047002.8,N
1627814715.1,286047002.7,N
1627814735.8,286047002.4,N
1627814755.7,286047002.3,N
1627814775.5,286047002.4,N
1627814795.4,286047002.3,N
1627814815.2,286047000.2,N
1627814835.0,286047002.7,N
1627814835.9,286047002.7,N
1627814855.8,286047002.3,N
1627814875.6,286047002.4,N
1627814895.5,286047002.4,N
1627814915.3,286047002.7,N
1627814935.1,286047002.5,N
1627814955.9,286047000.2,N
1627814975.7,286047002.8,N
1627814995.5,286047002.4,N
1627815015.4,286047002.7,N
1627815035.2,286047000.1,N
1627815055.1,286047000.2,N
1627815056.0,286047000.2,N
1627815075.8,286047002.5,N
1627815095.6,286047000.2,N
1627815115.5,286047002.4,N
1627815135.3,286047002.3,N
1627815155.2,286047000.1,N
1627815175.9,286047002.7,N
1627815195.7,286046999.9,N
1627815215.6,286047002.4,N
1627815235.4,286047002.5,N
1627815255.2,286047002.7,N
1627815275.1,286047002.3,N
1627815276.0,286047002.3,N
1627815295.8,286047002.5,N
1627815315.7,286047002.1,N
1627815335.5,286047002.4,N
1627815355.3,286047002.3,N
1627815375.2,286047002.4,N
1627815395.0,286047002.3,N
1627815395.9,286047002.3,N
1627815415.8,286047000.1,N
1627815435.6,286047000.0,N
1627815455.4,286046999.8,N
1627815475.3,286047002.5,N
1627815495.1,286047002.1,N
1627815515.9,286047002.8,N
1627815535.7,286047002.7,N
1627815555.5,286046999.7,N
1627815575.4,286047002.4,N
1627815595.2,286047002.5,N
